Location: Wells
(51.2093°N, 2.6446°W)
Time: 08:45:11
(UTC+01:00)

SO-50 - Pass Details

Date: 15 March 2026
Orbit: 567 x 673 km, 64.6° (Epoch: 17 April)

Event Time Altitude Azimuth Distance (km) Brightness Sun altitude
Rises 21:38:08 0° 288° (WNW) 2,994 ? -30.2°
Reaches altitude 10° 21:41:09 10° 307° (NW) 2,097 ? -30.5°
Maximum altitude 21:44:22 18° 350° (N) 1,654 ? -30.9°
Enters shadow 21:46:47 13° 24° (NNE) 1,924 ? -31.2°
